Starlink 33613

operational
NORAD ID: 63286 Int'l Des: 2025-053 Owner: SPXS Country: US Constellation: starlink
LEOCIRCULAR

关于 Starlink 33613

正在加载描述...

实时位置

正在加载3D地球...

即将过境

高度历史

Altitude vs Time

uPlot chart will show altitude changes over time

两行轨道根数

1 63286U 25053X 25353.67089006 .00041325 00000-0 15007-2 0 9994
2 63286 42.9992 333.8527 0000907 253.3590 106.7162 15.27628309 43953
Epoch: Dec 19, 2025 • Age: 7 hours

当前状态

高度 485.3 km
速度 7.62 km/s
星下点 -14.72°S, 90.79°E
发射日期 Mar 15, 2025
运行时间 0.7 years
类型 internet

技术详情

分类 Payload
质量 575.00 kg
干质量 530.00 kg
总质量 575.00 kg
长度 0.30 m
直径 4.10 m
跨度 29.00 m
形状 Box + pan
制造商 SPXS
平台类型 Starlink V2MO
阶段状态 In Orbit
所有者/国家 SPXS/US

大型星座

Loading constellations...